Temp
-11 -11 -11 -11 -11 -11 -11 -11 -11 -11 -11 -11 -11 -11 -11 -11 -11 -11 -11 -11 -11 -11 -11 -11 -12 -12 -12 -12 -12 -12 -12 -12 -12 -12 -12 -12 -12 -12 -12 -12 -12 -12 -12 -12 -12
-12 -12 -12 -11 -12 -11 -11 -11 -11 -11 -11 -11 -11 -11 -11 -11 -11 -11 -11 -11 -11 -11 -12 -12 -12 -12 -12 -12 -12 -12 -12 -12 -12 -12 -12 -12 -12 -12 -12 -12 -12 -12 -12 -12 -12
-12 -12 -12 -12 -12 -12 -11 -11 -11 -11 -11 -11 -11 -12 -12 -12 -12 -12 -12 -12 -12 -12 -12 -12 -12 -12 -12 -12 -12 -12 -12 -13 -13 -13 -13 -13 -13 -13 -13 -13 -13 -12 -12 -12 -12
-12 -12 -12 -12 -12 -12 -12 -12 -12 -12 -11 -12 -12 -12 -12 -12 -12 -12 -12 -12 -12 -12 -12 -12 -12 -12 -12 -12 -12 -12 -13 -13 -13 -13 -13 -13 -13 -13 -13 -13 -13 -13 -13 -13 -12
-12 -13 -12 -12 -12 -13 -13 -12 -12 -12 -12 -12 -12 -12 -12 -12 -12 -12 -12 -12 -12 -12 -12 -12 -12 -12 -12 -13 -13 -12 -13 -13 -13 -13 -13 -13 -13 -13 -14 -13 -13 -13 -13 -13 -13
-13 -13 -13 -13 -13 -13 -13 -13 -13 -12 -12 -12 -12 -12 -12 -12 -12 -12 -12 -12 -13 -13 -13 -13 -13 -13 -13 -13 -13 -13 -13 -13 -13 -14 -13 -13 -13 -13 -14 -14 -13 -13 -13 -13 -13
-13 -13 -13 -13 -13 -13 -13 -13 -13 -13 -13 -13 -13 -13 -12 -12 -12 -12 -12 -12 -13 -13 -13 -13 -13 -13 -13 -13 -13 -13 -13 -13 -14 -14 -13 -14 -13 -14 -14 -14 -14 -13 -13 -13 -13
-13 -13 -13 -13 -13 -13 -14 -13 -13 -13 -13 -13 -13 -13 -13 -13 -13 -13 -13 -13 -13 -13 -13 -14 -14 -14 -14 -14 -14 -14 -14 -14 -14 -14 -14 -14 -13 -15 -14 -14 -14 -14 -14 -14 -14
-14 -14 -13 -13 -13 -14 -14 -14 -14 -14 -13 -13 -13 -13 -13 -13 -13 -13 -13 -13 -13 -13 -14 -14 -14 -14 -14 -14 -14 -14 -14 -15 -15 -15 -15 -14 -14 -16 -15 -14 -14 -14 -14 -14 -14
-14 -14 -14 -14 -14 -14 -14 -14 -14 -14 -13 -13 -13 -13 -14 -14 -14 -14 -13 -14 -14 -14 -14 -14 -14 -14 -15 -15 -14 -15 -15 -15 -15 -15 -14 -15 -14 -15 -15 -14 -14 -14 -14 -14 -14
-15 -14 -14 -14 -14 -14 -14 -14 -14 -14 -14 -14 -14 -14 -14 -14 -14 -14 -14 -14 -14 -14 -14 -14 -14 -14 -14 -14 -15 -15 -15 -15 -15 -15 -14 -15 -14 -15 -15 -15 -14 -14 -14 -15 -15
-15 -15 -15 -14 -14 -14 -14 -14 -14 -14 -14 -15 -15 -15 -15 -15 -15 -15 -15 -15 -14 -14 -14 -14 -14 -14 -14 -14 -15 -15 -15 -15 -15 -15 -14 -15 -14 -15 -15 -14 -14 -15 -15 -15 -16
-16 -16 -15 -15 -15 -15 -15 -15 -15 -15 -15 -15 -15 -15 -15 -15 -15 -15 -15 -15 -15 -15 -15 -15 -15 -15 -15 -14 -15 -15 -15 -15 -15 -15 -15 -15 -14 -15 -15 -15 -15 -15 -15 -16 -16
-16 -16 -16 -16 -16 -16 -16 -16 -16 -16 -15 -15 -15 -15 -15 -16 -16 -16 -15 -15 -15 -15 -15 -15 -16 -16 -15 -15 -15 -15 -15 -15 -15 -15 -15 -16 -14 -15 -15 -15 -15 -15 -16 -16 -16
-17 -17 -16 -16 -16 -16 -16 -16 -16 -16 -16 -16 -16 -16 -16 -16 -16 -17 -16 -16 -16 -16 -16 -16 -16 -16 -16 -16 -16 -15 -15 -16 -16 -15 -15 -16 -15 -15 -15 -15 -16 -16 -16 -17 -17
-17 -17 -17 -17 -17 -17 -17 -16 -16 -17 -16 -17 -17 -17 -17 -17 -17 -17 -17 -17 -17 -17 -18 -18 -18 -18 -18 -18 -17 -17 -16 -16 -16 -16 -15 -16 -16 -15 -15 -16 -16 -17 -17 -17 -17
-17 -17 -17 -17 -17 -17 -17 -17 -17 -17 -17 -17 -17 -18 -18 -18 -18 -18 -18 -18 -18 -18 -18 -18 -18 -18 -18 -18 -17 -17 -17 -16 -16 -16 -16 -16 -16 -16 -16 -17 -17 -17 -17 -17 -17
-18 -18 -18 -18 -18 -18 -18 -18 -18 -18 -18 -18 -18 -19 -18 -19 -18 -18 -18 -18 -18 -18 -18 -18 -18 -18 -18 -18 -17 -17 -17 -17 -16 -16 -16 -17 -16 -16 -17 -17 -17 -17 -17 -17 -17
-19 -19 -19 -19 -20 -19 -19 -19 -19 -19 -19 -19 -19 -19 -19 -19 -19 -18 -19 -19 -18 -19 -19 -18 -18 -18 -18 -17 -17 -17 -17 -17 -17 -16 -16 -17 -17 -17 -17 -17 -17 -18 -17 -17 -17
-20 -20 -20 -20 -20 -20 -20 -20 -19 -19 -19 -19 -19 -19 -19 -19 -19 -19 -18 -19 -19 -19 -19 -18 -18 -18 -18 -17 -18 -18 -17 -17 -17 -16 -16 -17 -17 -17 -17 -17 -18 -18 -17 -17 -17
-19 -20 -20 -20 -20 -20 -20 -20 -20 -20 -20 -20 -19 -19 -19 -19 -19 -19 -19 -19 -19 -19 -19 -19 -18 -18 -18 -18 -18 -18 -18 -18 -17 -17 -17 -17 -18 -18 -18 -18 -18 -18 -17 -17 -17
-20 -20 -20 -20 -20 -20 -20 -20 -20 -20 -20 -20 -20 -20 -20 -19 -19 -19 -19 -19 -19 -19 -19 -19 -18 -18 -18 -18 -19 -18 -18 -17 -17 -18 -18 -18 -17 -18 -18 -18 -18 -18 -18 -18 -18
-20 -20 -20 -20 -20 -20 -20 -20 -20 -20 -20 -20 -20 -20 -20 -20 -19 -19 -19 -19 -19 -19 -19 -19 -18 -18 -18 -18 -18 -18 -18 -17 -18 -18 -18 -18 -18 -18 -18 -18 -18 -18 -18 -18 -18
-21 -21 -21 -21 -20 -20 -20 -20 -20 -20 -20 -20 -20 -20 -20 -20 -20 -19 -19 -19 -19 -19 -19 -19 -18 -18 -18 -18 -19 -19 -18 -18 -17 -18 -18 -18 -18 -18 -18 -18 -18 -18 -18 -18 -18
-21 -21 -21 -21 -21 -21 -20 -20 -20 -20 -20 -20 -20 -20 -20 -20 -20 -20 -20 -19 -19 -19 -19 -19 -18 -18 -18 -18 -18 -18 -18 -18 -18 -18 -18 -18 -18 -18 -18 -18 -18 -18 -18 -18 -18
-21 -21 -22 -21 -21 -21 -21 -21 -21 -20 -21 -20 -20 -20 -20 -20 -20 -20 -20 -20 -19 -19 -19 -19 -19 -18 -18 -18 -18 -18 -18 -18 -18 -18 -18 -18 -18 -19 -19 -19 -19 -19 -19 -19 -19
-22 -22 -22 -21 -21 -21 -21 -21 -21 -21 -21 -21 -21 -21 -21 -20 -20 -20 -20 -20 -20 -19 -19 -18 -18 -18 -18 -18 -19 -18 -18 -18 -18 -18 -18 -18 -19 -19 -19 -19 -19 -19 -19 -19 -19
Height
5779 5779 5780 5779 5779 5778 5777 5776 5776 5774 5773 5772 5771 5770 5770 5770 5768 5768 5767 5766 5765 5764 5762 5761 5760 5759 5759 5758 5757 5755 5755 5755 5754 5754 5754 5753 5752 5752 5751 5749 5749 5748 5747 5747 5747
5775 5775 5774 5774 5774 5774 5773 5772 5771 5770 5769 5768 5767 5766 5765 5765 5764 5763 5762 5760 5760 5758 5757 5756 5755 5754 5753 5752 5751 5750 5750 5749 5749 5747 5747 5746 5746 5745 5745 5744 5743 5740 5740 5739 5739
5771 5769 5769 5770 5768 5768 5768 5767 5766 5765 5765 5764 5762 5762 5761 5760 5760 5758 5757 5755 5754 5753 5752 5750 5749 5748 5747 5746 5745 5744 5744 5742 5742 5741 5740 5739 5739 5738 5738 5739 5734 5735 5733 5731 5731
5764 5764 5763 5763 5763 5763 5762 5761 5760 5760 5758 5758 5757 5756 5755 5754 5755 5752 5751 5749 5748 5747 5746 5745 5743 5741 5740 5738 5737 5737 5736 5735 5735 5733 5733 5732 5732 5731 5732 5729 5727 5726 5724 5723 5722
5757 5757 5757 5756 5756 5756 5756 5755 5755 5754 5753 5752 5752 5750 5750 5749 5747 5745 5744 5743 5742 5741 5739 5738 5736 5735 5733 5732 5729 5729 5729 5727 5726 5726 5724 5724 5723 5723 5725 5718 5719 5717 5715 5713 5711
5750 5749 5749 5749 5748 5748 5749 5749 5750 5748 5747 5745 5744 5744 5744 5742 5740 5738 5737 5735 5734 5733 5731 5730 5729 5727 5726 5725 5722 5722 5720 5719 5719 5717 5717 5716 5714 5714 5713 5710 5708 5706 5704 5702 5699
5743 5742 5742 5742 5742 5742 5741 5742 5742 5742 5740 5739 5738 5737 5736 5735 5733 5731 5729 5727 5725 5723 5722 5721 5720 5718 5717 5716 5714 5712 5712 5711 5710 5709 5707 5706 5707 5708 5703 5701 5698 5695 5693 5691 5687
5735 5735 5735 5735 5735 5735 5735 5734 5734 5734 5733 5732 5730 5729 5728 5726 5725 5723 5721 5718 5716 5714 5713 5711 5710 5708 5708 5706 5705 5704 5703 5702 5702 5700 5698 5697 5700 5698 5695 5692 5689 5687 5682 5679 5676
5726 5726 5727 5727 5727 5727 5727 5727 5726 5726 5725 5724 5723 5721 5720 5718 5716 5714 5712 5710 5708 5705 5704 5703 5701 5700 5699 5698 5696 5696 5694 5694 5692 5690 5688 5688 5690 5688 5686 5682 5681 5676 5673 5670 5665
5717 5718 5718 5719 5719 5719 5719 5719 5718 5717 5717 5715 5713 5713 5711 5709 5706 5706 5704 5702 5701 5699 5698 5696 5694 5692 5691 5688 5687 5686 5685 5685 5683 5681 5678 5679 5681 5680 5675 5673 5670 5667 5663 5658 5653
5708 5709 5710 5710 5711 5711 5711 5711 5711 5710 5708 5706 5705 5703 5701 5700 5698 5696 5695 5694 5692 5691 5689 5688 5687 5686 5681 5680 5678 5676 5675 5675 5674 5670 5669 5671 5671 5671 5666 5662 5660 5657 5652 5645 5638
5699 5699 5701 5701 5701 5702 5701 5701 5701 5700 5700 5698 5696 5694 5692 5691 5689 5688 5687 5686 5684 5682 5680 5679 5678 5675 5673 5671 5670 5667 5665 5666 5663 5662 5660 5661 5662 5660 5656 5652 5650 5645 5639 5633 5627
5688 5690 5691 5691 5692 5693 5692 5691 5691 5690 5690 5689 5687 5685 5684 5682 5680 5678 5677 5675 5673 5671 5669 5669 5667 5665 5663 5662 5660 5658 5656 5655 5654 5654 5652 5651 5652 5652 5648 5644 5640 5634 5628 5623 5618
5678 5680 5681 5682 5684 5683 5682 5682 5681 5680 5679 5680 5679 5676 5675 5672 5671 5668 5666 5665 5662 5660 5659 5658 5656 5654 5653 5652 5650 5648 5647 5645 5644 5644 5645 5645 5639 5644 5638 5633 5629 5624 5618 5614 5610
5668 5670 5672 5673 5673 5673 5674 5673 5672 5671 5670 5671 5670 5667 5665 5664 5661 5660 5657 5655 5652 5649 5648 5646 5643 5642 5642 5642 5640 5640 5638 5637 5637 5637 5636 5638 5634 5633 5628 5623 5619 5614 5610 5607 5602
5658 5661 5662 5663 5663 5663 5663 5663 5665 5665 5662 5664 5662 5660 5658 5655 5653 5650 5647 5644 5641 5638 5636 5635 5633 5632 5632 5630 5631 5631 5630 5630 5630 5629 5630 5629 5627 5627 5619 5615 5611 5608 5604 5600 5594
5647 5649 5651 5653 5655 5654 5655 5655 5657 5655 5655 5657 5655 5653 5651 5648 5646 5643 5639 5635 5632 5629 5628 5628 5626 5624 5623 5622 5622 5622 5621 5622 5623 5622 5624 5622 5619 5615 5611 5607 5604 5601 5597 5593 5586
5637 5639 5641 5643 5643 5644 5646 5647 5647 5649 5647 5646 5647 5645 5644 5641 5640 5636 5633 5629 5625 5622 5620 5619 5619 5616 5614 5614 5613 5612 5613 5614 5613 5616 5617 5616 5612 5607 5604 5600 5598 5595 5591 5586 5579
5629 5630 5631 5634 5635 5636 5638 5639 5639 5641 5640 5640 5640 5639 5638 5635 5633 5630 5627 5623 5619 5616 5614 5611 5611 5608 5606 5604 5603 5601 5605 5606 5608 5609 5609 5610 5606 5603 5598 5596 5594 5590 5586 5580 5573
5621 5623 5624 5626 5628 5630 5631 5633 5633 5633 5633 5633 5633 5632 5631 5628 5628 5625 5621 5618 5614 5610 5608 5606 5603 5601 5598 5596 5593 5595 5598 5601 5603 5604 5604 5604 5600 5597 5595 5593 5590 5585 5581 5575 5568
5614 5615 5617 5618 5620 5622 5623 5625 5625 5626 5626 5627 5626 5625 5624 5622 5622 5619 5616 5612 5608 5605 5603 5601 5599 5596 5592 5591 5590 5591 5593 5596 5599 5599 5596 5597 5597 5594 5591 5589 5585 5581 5577 5571 5564
5605 5607 5609 5611 5612 5613 5616 5617 5618 5618 5619 5619 5619 5617 5616 5616 5616 5613 5611 5607 5604 5600 5598 5596 5593 5590 5588 5585 5586 5590 5591 5593 5595 5596 5593 5593 5593 5590 5589 5586 5582 5578 5574 5569 5563
5594 5598 5600 5601 5603 5605 5607 5608 5609 5610 5610 5611 5611 5611 5610 5610 5609 5608 5605 5603 5599 5596 5594 5591 5588 5585 5584 5584 5583 5586 5589 5591 5591 5591 5591 5590 5591 5588 5586 5583 5581 5577 5572 5567 5562
5585 5588 5590 5592 5595 5597 5598 5600 5601 5602 5603 5603 5604 5604 5604 5604 5603 5602 5600 5598 5595 5592 5589 5587 5585 5582 5580 5579 5581 5583 5585 5586 5587 5588 5588 5588 5587 5587 5585 5582 5579 5576 5572 5567 5561
5575 5578 5580 5583 5585 5588 5589 5591 5593 5594 5596 5596 5597 5597 5597 5597 5597 5595 5594 5593 5591 5588 5585 5583 5581 5578 5576 5575 5576 5578 5581 5583 5584 5585 5585 5586 5586 5585 5584 5581 5579 5576 5572 5567 5561
5564 5567 5570 5572 5575 5577 5580 5584 5584 5586 5588 5589 5589 5590 5590 5591 5590 5590 5589 5588 5586 5584 5581 5580 5578 5575 5573 5572 5573 5577 5579 5581 5582 5582 5584 5585 5585 5584 5583 5582 5579 5576 5572 5567 5562
5554 5556 5559 5562 5565 5568 5571 5574 5575 5577 5580 5580 5582 5583 5583 5584 5584 5584 5583 5582 5582 5579 5577 5576 5574 5572 5570 5569 5571 5576 5577 5578 5579 5580 5583 5584 5584 5583 5582 5581 5579 5576 5573 5568 5563
Wind_Speed
19 19 20 19 19 18 17 17 17 16 15 15 15 16 18 19 20 20 21 21 22 23 23 23 23 23 23 23 24 25 25 25 27 27 28 29 29 30 31 32 33 34 35 34 35
22 22 21 21 21 22 21 20 19 18 18 17 16 16 17 20 22 23 23 22 22 22 23 24 24 25 26 26 25 26 26 28 29 30 30 30 31 32 33 34 34 37 37 38 38
27 24 24 24 23 24 25 25 24 23 21 21 21 20 21 21 22 23 23 23 24 24 24 24 25 27 28 29 30 29 28 30 30 32 32 32 32 33 33 32 39 39 40 41 41
30 31 29 28 28 28 27 26 27 27 26 25 25 25 25 24 24 24 25 25 27 28 27 27 27 28 30 31 31 32 31 31 32 34 34 34 34 35 32 36 39 41 42 43 44
31 31 29 28 29 29 29 28 28 27 26 26 27 26 27 28 28 29 29 30 31 31 31 28 28 29 30 32 33 32 33 33 34 34 35 35 36 36 31 41 39 41 43 44 46
31 31 31 29 29 28 28 28 28 28 30 30 30 31 31 31 32 33 34 35 36 36 36 35 33 33 32 33 34 34 35 35 35 35 36 37 38 36 36 39 41 42 45 46 49
35 33 32 32 30 29 28 30 30 32 32 32 32 31 31 32 34 35 36 37 38 40 40 40 39 38 36 36 36 36 36 37 35 36 38 39 39 34 39 41 42 45 47 49 52
36 34 32 32 32 32 33 33 33 34 33 33 33 35 36 35 35 36 37 36 37 38 39 41 41 41 39 38 37 38 38 36 35 37 40 42 37 34 39 42 45 45 48 52 56
36 35 35 33 33 32 33 33 32 33 35 36 37 36 37 37 37 37 36 35 33 33 34 34 36 37 37 39 40 38 40 37 38 39 42 42 38 35 38 44 43 47 50 53 57
38 37 36 36 36 36 35 36 38 38 39 41 41 39 38 37 37 37 34 31 29 30 32 33 33 34 33 37 40 41 41 41 41 44 44 42 39 35 40 43 45 46 51 54 55
42 41 40 40 41 38 41 42 43 42 42 41 41 38 36 35 36 35 36 35 36 37 39 38 38 36 37 36 37 37 40 43 43 45 44 40 38 35 38 43 45 48 50 52 53
46 43 42 42 44 42 44 47 47 45 43 40 39 39 38 37 37 38 40 42 44 45 45 44 40 39 39 40 39 40 40 40 43 43 49 41 36 36 39 43 44 47 49 46 42
43 41 41 43 45 45 42 42 43 42 41 39 39 38 39 39 40 40 41 43 43 42 42 42 41 40 40 40 41 39 40 41 42 42 43 36 36 33 37 41 44 44 40 35 34
42 42 41 38 38 37 37 38 38 37 39 40 41 37 37 37 38 38 41 42 41 41 42 43 44 45 44 42 43 40 40 41 39 35 32 32 38 31 36 42 40 36 30 28 31
38 39 38 38 37 36 38 37 36 38 39 36 36 36 34 36 37 33 36 39 41 41 41 42 44 44 43 42 44 42 35 34 34 30 31 27 34 32 37 37 35 27 26 25 28
41 40 42 39 37 38 40 39 39 37 37 33 33 32 31 34 35 35 35 35 36 37 36 32 34 35 36 39 40 39 33 32 32 30 29 26 31 30 36 33 26 23 24 28 33
42 44 44 44 42 42 41 38 38 37 33 33 31 29 30 31 32 32 32 33 32 33 31 30 32 33 34 34 33 35 33 33 31 28 25 24 30 32 33 29 22 22 24 27 33
40 39 38 40 37 34 34 32 32 33 30 29 27 26 27 29 29 28 30 27 28 31 28 31 30 35 29 33 36 35 34 34 31 24 23 22 26 30 26 22 21 20 24 27 33
22 26 28 30 27 26 27 28 29 28 29 28 27 28 27 28 27 27 30 28 27 26 25 24 29 30 29 30 32 35 34 27 22 21 22 20 21 23 20 18 18 22 28 31 35
27 25 23 25 26 29 29 27 28 29 29 30 30 30 30 29 26 28 29 27 24 22 22 24 28 27 28 27 26 30 27 18 16 19 21 15 18 16 15 14 17 22 27 30 32
32 31 30 29 30 29 29 29 30 31 30 31 28 30 31 28 25 28 27 26 24 23 21 22 25 24 23 18 19 24 20 15 14 16 20 18 13 12 14 13 19 22 25 25 29
36 33 33 35 35 33 32 33 33 33 32 33 32 32 30 26 24 26 24 25 22 22 21 21 24 21 19 17 14 22 15 14 11 11 14 14 14 9 12 14 15 18 19 22 27
38 37 37 36 35 32 32 33 32 31 33 33 31 28 27 24 25 24 23 22 23 22 20 23 22 22 15 14 18 20 13 12 9 10 9 10 10 9 11 10 12 16 19 23 27
42 41 40 38 36 34 34 33 32 31 30 30 28 27 25 24 24 24 24 21 22 22 21 21 22 21 16 14 12 14 13 9 8 6 6 5 6 6 7 11 14 16 18 20 23
42 42 41 40 37 35 36 34 33 32 30 31 30 29 26 26 25 24 25 22 21 23 21 22 22 20 15 16 19 17 12 8 5 3 1 3 6 6 10 12 13 14 17 19 21
39 39 40 39 39 38 37 35 33 32 31 31 30 29 28 26 25 25 26 24 21 22 22 22 21 19 15 17 19 15 11 7 6 5 9 11 8 10 11 11 13 14 17 20 21
38 38 36 38 37 37 36 35 34 33 32 32 32 32 30 29 28 27 27 26 22 22 22 21 20 19 14 15 19 14 11 9 9 13 13 10 10 10 10 12 14 17 18 20 23
Wind_Direction
279 280 284 286 288 288 287 286 286 286 286 286 289 291 293 292 291 290 294 297 292 289 285 282 280 277 274 269 265 264 265 259 258 262 263 264 265 265 267 268 271 272 274 274 273
274 274 275 279 282 282 283 283 283 281 283 284 286 288 290 291 291 292 295 296 294 291 288 285 281 279 276 272 269 267 264 261 259 258 261 263 264 265 266 269 271 270 271 272 271
277 274 275 277 277 279 280 278 277 278 279 279 278 280 286 290 291 293 294 293 293 291 290 289 285 280 278 277 275 271 266 264 263 262 262 264 264 264 267 271 269 269 269 270 271
273 275 276 278 278 276 273 273 274 275 278 280 281 281 282 284 287 287 288 290 290 289 288 289 286 283 278 274 274 273 268 264 264 264 266 265 265 266 268 267 267 269 269 270 270
271 273 273 274 277 278 276 273 272 274 277 281 283 284 285 286 284 285 285 284 284 284 284 283 284 283 282 275 272 272 270 267 265 267 268 268 270 271 273 269 271 270 272 273 276
269 269 271 275 276 277 276 274 273 278 280 280 281 285 285 282 281 281 281 281 281 280 279 279 279 281 282 278 273 270 269 268 268 266 268 270 271 275 272 276 276 276 277 279 281
269 269 271 271 273 273 270 272 274 278 280 279 282 283 283 285 283 282 281 280 278 276 277 277 277 277 277 275 273 269 267 268 268 268 269 271 273 276 276 277 279 279 282 283 284
265 268 270 271 273 274 273 274 277 278 278 277 279 284 284 284 284 285 284 281 279 277 276 277 278 277 274 271 271 267 267 267 268 267 269 271 276 276 277 279 279 282 283 285 286
263 267 269 272 275 276 275 274 275 277 279 279 282 284 284 284 286 286 284 280 277 277 278 279 280 279 277 274 272 272 270 268 268 267 267 271 275 278 278 278 280 281 284 285 287
265 266 267 273 274 275 276 276 278 279 281 282 283 282 283 285 287 283 275 272 274 279 282 284 285 285 281 275 276 274 273 271 269 268 271 272 274 279 278 280 281 284 287 290 293
264 265 269 271 271 274 279 279 280 281 283 284 285 284 284 283 282 275 270 267 272 278 282 282 284 286 282 283 281 279 276 272 271 274 278 273 274 277 281 281 285 288 293 297 296
265 264 268 268 269 274 281 280 283 283 284 285 286 285 286 286 283 279 275 275 277 279 280 279 278 277 281 285 284 280 279 275 272 276 280 271 274 281 282 284 290 296 299 298 298
261 262 264 267 270 276 279 280 281 283 283 286 288 288 289 288 287 283 281 279 279 279 278 278 276 276 277 280 283 281 278 276 276 274 271 272 275 280 284 288 295 299 299 299 303
262 262 265 268 272 276 280 284 286 288 283 286 290 288 288 288 286 284 282 282 279 280 280 279 276 274 273 273 275 279 283 276 270 267 267 274 280 284 290 296 300 302 299 302 306
259 260 260 265 273 279 285 285 290 287 283 286 288 289 290 289 288 287 286 286 285 283 281 278 277 273 269 267 269 275 277 278 267 265 276 277 281 293 296 300 303 299 297 296 302
257 261 267 276 278 283 285 287 286 282 281 284 286 288 289 291 291 294 296 295 294 296 293 289 287 281 277 272 272 269 265 264 263 269 275 278 287 299 298 304 301 294 292 298 305
264 266 271 274 276 277 279 280 277 278 279 280 281 283 286 288 292 302 305 300 297 299 288 283 287 288 277 275 266 263 252 255 262 268 275 285 290 297 305 304 297 295 295 306 312
265 266 270 271 269 267 268 266 266 272 268 268 275 279 286 288 297 305 314 301 302 296 289 286 282 287 270 269 271 259 252 252 259 269 275 294 302 303 307 306 297 297 297 306 311
255 255 253 254 252 255 255 259 260 262 264 267 271 277 286 286 295 303 312 307 297 298 284 283 288 283 273 275 274 257 250 240 253 269 284 304 299 310 311 304 302 298 297 310 317
249 248 243 248 251 254 256 262 265 265 270 273 275 277 285 285 285 297 306 307 299 294 284 289 290 285 281 284 281 249 231 231 250 272 287 313 304 318 304 308 308 314 314 320 323
253 249 247 247 249 252 254 258 263 267 271 273 274 280 286 280 282 289 303 308 306 295 290 289 295 294 284 283 268 233 218 229 252 277 301 314 314 323 312 314 314 320 323 328 325
251 252 249 249 249 251 254 259 261 266 267 270 275 280 280 276 275 285 296 303 307 300 299 298 303 304 285 278 252 242 229 238 259 286 300 317 327 330 321 323 325 334 340 341 340
251 251 251 251 253 254 256 259 261 263 265 269 272 274 275 271 273 282 294 298 304 297 299 302 310 312 289 260 241 225 233 250 274 290 291 325 332 329 337 352 6 356 354 358 357
249 249 251 251 253 254 255 258 261 262 264 265 267 270 270 270 274 283 291 293 301 304 299 301 308 309 291 256 230 224 237 250 274 270 305 333 340 356 30 17 10 9 4 8 14
246 248 248 250 252 253 255 256 259 261 261 263 265 264 265 270 273 279 287 294 295 301 303 302 307 307 284 259 224 219 234 243 246 266 12 86 94 60 43 29 23 15 12 17 20
246 249 248 247 248 250 252 256 256 259 260 261 263 263 265 267 270 273 282 289 297 294 298 298 304 307 279 250 210 222 223 219 203 151 135 124 108 75 55 45 37 32 26 28 30
247 248 247 247 245 248 250 251 255 257 257 258 261 262 263 265 268 273 276 286 289 291 293 299 301 304 290 251 202 219 211 193 181 154 148 141 118 92 78 71 61 54 44 38 34